Location: College Park
(38.9810°N, 76.9370°W)
Time: 02:18:02
(UTC-05:00)

OTV 5 (USA 277) - Pass Details

Date: 11 January 2018
Orbit: 404 x 417 km, 43.0° (Epoch: 07 September)

Event Time Altitude Azimuth Distance (km) Brightness Sun altitude
Exits shadow 05:00:01 19° 108° (ESE) 1,029 ? -27.9°
Drops below altitude 10° 05:01:04 10° 109° (ESE) 1,451 ? -27.7°
Sets 05:03:10 0° 110° (ESE) 2,308 ? -27.3°
